DW7792 Weather Reports


Display with metric or nautical units.
time (UTC)temp
F
wind
direction
speed
MPH
gust
MPH
rain 1hr
in
rain 24hr
in
rain mn
in
humidity
%
barometer
mb
20260505021520 48 254 8.0 13.0 0.00 0.26 0.24 76 1005.6
20260505020031 49 241 8.0 16.0 0.00 0.27 0.24 75 1005.4
20260505014518 49 235 8.0 14.0 0.00 0.27 0.24 74 1005.2
20260505013018 50 235 6.0 13.0 0.00 0.27 0.24 72 1005.4
20260505011517 51 251 9.0 17.0 0.00 0.27 0.24 70 1005.1
20260505010016 51 260 8.0 18.0 0.00 0.30 0.24 70 1005.0
20260505004518 51 244 8.0 18.0 0.00 0.30 0.24 69 1005.1
20260505003013 52 261 9.0 19.0 0.00 0.30 0.24 68 1004.8
20260505001512 52 241 7.0 17.0 0.00 0.30 0.24 67 1004.6
20260505000012 52 261 14.0 21.0 0.00 0.37 0.24 64 1004.5
20260504234511 53 262 15.0 23.0 0.00 0.37 0.24 59 1004.2
20260504233008 53 262 13.0 21.0 0.00 0.37 0.24 52 1004.2
20260504231506 53 262 8.0 12.0 0.00 0.37 0.24 51 1003.9
20260504230005 54 287 11.0 18.0 0.00 0.61 0.24 48 1003.7
20260504224502 54 258 6.0 12.0 0.00 0.61 0.24 48 1003.2
20260504223102 54 289 8.0 17.0 0.00 0.61 0.24 46 1003.1
20260504221559 55 279 10.0 24.0 0.00 0.61 0.24 46 1002.8
20260504220157 55 274 14.0 26.0 0.00 0.61 0.24 45 1002.6
20260504214558 55 267 14.0 31.0 0.00 0.83 0.24 46 1002.5
20260504213109 56 261 16.0 39.0 0.00 0.83 0.24 45 1002.4
20260504211552 56 257 18.0 26.0 0.00 0.83 0.24 45 1002.4
20260504210051 56 270 19.0 33.0 0.00 0.94 0.24 45 1002.1
20260504204552 56 260 17.0 34.0 0.00 0.94 0.24 46 1001.7
20260504203043 56 275 18.0 28.0 0.00 0.94 0.24 47 1001.7
20260504201540 55 269 16.0 30.0 0.00 0.94 0.24 50 1001.5
20260504200036 55 281 17.0 33.0 0.00 1.00 0.24 50 1001.3
20260504194534 54 281 22.0 32.0 0.00 1.00 0.24 51 1001.2
20260504193041 54 279 18.0 31.0 0.00 1.00 0.24 55 1001.0
20260504191533 54 281 17.0 34.0 0.00 1.00 0.24 58 1000.7
20260504190033 54 248 18.0 32.0 0.00 1.02 0.24 60 1000.7
20260504184527 54 244 20.0 32.0 0.00 1.02 0.24 61 1000.3
20260504183026 54 268 13.0 26.0 0.00 1.02 0.24 61 1000.3
20260504181522 53 274 15.0 25.0 0.00 1.02 0.24 65 1000.2
20260504180020 52 288 14.0 31.0 0.00 1.02 0.24 67 1000.1
20260504174520 52 256 18.0 29.0 0.00 1.02 0.24 68 999.9
20260504173016 52 276 17.0 27.0 0.00 1.02 0.24 71 999.8
20260504171511 51 269 14.0 30.0 0.00 1.02 0.24 71 999.7
20260504081528 36 304 28.0 48.0 0.01 0.91 0.13 94 982.9
20260504060107 38 262 15.0 28.0 0.02 0.87 0.09 97 978.3
20260504044544 39 256 12.0 22.0 0.03 0.84 0.06 97 976.3
20260504043052 38 257 11.0 18.0 0.04 0.83 0.06 97 975.7
20260504041538 38 271 11.0 20.0 0.03 0.82 0.04 97 974.9
20260504040035 38 264 7.0 15.0 0.03 0.81 0.03 97 974.3
20260504034536 38 305 9.0 12.0 0.04 0.81 0.03 97 973.8
20260504033030 39 344 3.0 6.0 0.03 0.80 0.02 97 973.5
20260504031528 38 56 5.0 11.0 0.03 0.79 0.01 97 973.5
20260504030026 38 68 10.0 22.0 0.02 0.78 0.78 97 973.6
20260504024524 38 78 14.0 26.0 0.02 0.77 0.77 97 974.1
20260504023020 39 108 15.0 23.0 0.02 0.76 0.76 97 974.9